Regional Weather Roundup
Issued by NWS Raleigh/Durham, NC

Home | Current Version | Previous Version | Text Only | Print | Product List | Glossary On
Versions: 1 2 3 4 5 6 7 8 9 10 11 12 13 14 15 16 17 18 19 20 21 22 23 24 25 26 27 28 29 30 31 32 33 34 35 36 37 38 39 40 41 42 43 44 45 46 47 48 49 50
000
ASUS42 KRAH 031310
RWRRAH
NORTH CAROLINA WEATHER ROUNDUP
NATIONAL WEATHER SERVICE RALEIGH NC
900 AM EDT THU SEP 03 2015

NOTE: "FAIR" INDICATES FEW OR NO CLOUDS BELOW 12,000 FEET WITH NO
SIGNIFICANT WEATHER AND/OR OBSTRUCTIONS TO VISIBILITY.

NCZ001-053-055-056-065-067-031400-
WESTERN NORTH CAROLINA

CITY           SKY/WX    TMP DP  RH WIND       PRES   REMARKS
ASHEVILLE      PTSUNNY   70  64  81 N5        30.10S
JEFFERSON      MOSUNNY   70  56  61 CALM      30.14S
MORGANTON      MOSUNNY   71  65  81 CALM      30.09R
HICKORY        MOSUNNY   74  66  76 NW6       30.03S
RUTHERFORDTON  PTSUNNY   76  66  71 CALM      30.04R
MOUNT AIRY     SUNNY     74  68  82 CALM      30.04S
BOONE          PTSUNNY   67  60  77 W6        30.15S
$$

NCZ021-022-025-041-071-084-088-031400-
CENTRAL NORTH CAROLINA

CITY           SKY/WX    TMP DP  RH WIND       PRES   REMARKS
CHARLOTTE      PTSUNNY   77  67  71 N8        30.01R
GREENSBORO     PTSUNNY   77  65  66 NW5       30.00R
WINSTON-SALEM  SUNNY     75  65  70 NW6       30.01S
RALEIGH-DURHAM PTSUNNY   73  69  87 CALM      29.97S
FORT BRAGG     MOSUNNY   76  71  84 N1        29.95S
FAYETTEVILLE   MOSUNNY   77  70  79 CALM      29.96R
BURLINGTON     MOSUNNY   74  69  85 W5        29.98S
LAURINBURG     CLOUDY    76  72  87 NE7       29.97R FOG
$$

NCZ011-015-027-028-043-044-047-080-103-031400-
NORTHEASTERN NORTH CAROLINA

CITY           SKY/WX    TMP DP  RH WIND       PRES   REMARKS
ROCKY MT-WILSO MOSUNNY   72  69  90 N5        29.96R FOG
GREENVILLE     CLOUDY    70  70 100 NW3       29.97S FOG
WASHINGTON     CLOUDY    69  68  98 CALM      29.95R FOG
ELIZABETH CITY SUNNY     74  70  87 W6        29.93S
MANTEO         SUNNY     76  71  83 NW5       29.93S
CAPE HATTERAS  MOSUNNY   79  72  79 VRB3      29.93S
$$

NCZ078-087-090-091-093-098-101-031400-
SOUTHEASTERN NORTH CAROLINA

CITY           SKY/WX    TMP DP  RH WIND       PRES   REMARKS
LUMBERTON      PTSUNNY   78  74  87 CALM      29.95R
GOLDSBORO      PTSUNNY   72  71  96 NW3       29.95R
KENANSVILLE      N/A     71  70  98 N5        29.97R
NEW BERN       SUNNY     75  69  81 CALM      29.95R
CHERRY POINT   MOSUNNY   77  70  79 NW6       29.94R
BEAUFORT       SUNNY     76  72  87 NE3       29.93S
JACKSONVILLE   MOSUNNY   78  72  81 N5        29.93R
WILMINGTON     MOSUNNY   80  72  76 S6        29.93R
$$



USA.gov is the U.S. government's official web portal to all federal, state and local government web resources and services.